Location: Evensen
(52.5775°N, 9.5258°E)
Time: 19:47:32
(UTC+00:00)

Cosmos 2219 Rocket - Pass Details

Date: 15 May 2026
Orbit: 826 x 846 km, 71.0° (Epoch: 8 June)

Event Time Altitude Azimuth Distance (km) Brightness Sun altitude
Rises 20:13:09 0° 329° (NNW) 3,404 7.3 -7.9°
Reaches altitude 10° 20:15:42 10° 335° (NNW) 2,469 6.0 -8.2°
Maximum altitude 20:21:11 48° 50° (NE) 1,093 2.8 -8.8°
Enters shadow 20:26:32 11° 124° (SE) 2,420 4.0 -9.3°
